Powrót do katalogu

CHAMRAN-1

AktywnyNaukaVLEO
NORAD 61072·PAYLOAD·🇮🇷 Iran

Wystrzelony Sep 14, 2024 z Shahroud Space Center

Loading…

Następne Przeloty (najbliższe 24 godziny)

TLE

ŚwieżeSource: Space-Track

Epoka: Sep 14, 2026, 03:11 UTC

1 61072U 24165B   26257.13309090  .00002858  00000-0  17178-3 0  9991
2 61072  64.0740 109.5202 0060628 301.8931  57.6295 15.11679936110100

Śledź CHAMRAN-1 w czasie rzeczywistym z AllMySat

Download on the App Store